Theta_e
316 316 316 316 316 315 315 316 316 316 317 321 324 321 318 321 327 328 323 320 319 316 313 312 310 308 307 306 306 306 305 305 305 305 306 306 305 305 306 306 307 309 311 313 314 314 315 314 314 314 315 315 317 318 318 319 320 320 321 322 323 324 325 326 326 326 327 328 328 329 329 329 329 328 328 328 325 324 326 327 327 326 325 326 322 316 319
315 315 315 315 315 315 315 314 314 315 316 317 318 318 317 320 324 323 319 316 313 311 310 309 308 307 306 305 305 304 304 304 304 304 304 304 304 304 304 304 305 307 309 311 313 313 313 313 313 313 314 315 316 317 318 318 319 320 321 321 321 322 324 324 325 326 326 326 327 328 329 329 329 328 327 327 325 323 325 326 326 325 325 324 319 315 318
317 314 314 314 314 315 314 314 313 314 315 315 316 316 316 317 318 316 314 313 311 308 308 307 306 306 305 305 304 304 303 303 303 303 303 303 303 303 303 303 304 306 307 309 311 311 311 312 312 312 313 314 314 316 317 317 318 318 320 320 320 321 323 324 324 325 325 326 326 327 328 328 329 328 327 326 324 323 324 324 324 325 325 322 319 317 317
318 315 314 315 315 316 315 314 313 313 314 314 314 314 314 315 315 314 315 314 310 307 306 305 305 304 304 304 303 303 303 302 302 302 302 302 302 303 303 303 304 305 307 308 309 309 310 311 312 312 313 313 313 314 315 315 316 318 318 318 319 321 323 323 324 324 325 325 325 326 327 328 328 328 328 326 323 323 325 324 324 326 324 321 320 319 318
319 316 316 317 319 322 319 314 312 313 313 313 312 312 312 312 313 315 315 313 309 306 305 304 304 303 303 303 302 302 302 302 302 301 301 302 302 302 303 303 304 305 306 307 307 308 309 311 311 312 313 313 313 313 313 314 315 317 318 318 319 321 323 323 323 323 324 324 324 325 326 327 328 328 328 327 324 323 325 324 324 325 324 322 320 319 320
319 316 317 318 320 321 317 312 311 312 312 311 312 311 309 309 311 311 310 308 306 305 304 304 303 303 302 302 301 301 301 301 301 301 301 301 302 302 302 303 304 305 306 306 307 308 308 310 311 311 312 313 313 313 314 314 315 316 317 318 319 321 323 323 323 323 324 324 324 325 325 326 327 328 327 327 325 324 324 323 324 325 324 322 321 319 319
318 317 318 321 321 317 312 310 310 310 309 309 309 309 308 308 308 307 307 306 305 304 303 302 302 301 301 301 300 300 300 300 300 301 301 301 302 302 302 303 304 305 305 306 306 307 308 309 310 311 311 312 313 314 314 314 315 316 317 317 318 320 321 322 322 322 323 324 324 325 325 325 326 328 327 326 325 323 323 324 324 324 323 323 322 320 318
317 318 318 319 317 312 310 311 310 310 310 310 310 310 309 308 307 306 306 305 303 303 302 301 301 300 300 300 300 300 300 300 300 300 300 301 301 302 302 302 303 303 304 305 305 306 307 308 309 310 310 311 313 313 314 314 315 316 316 316 317 318 320 320 320 321 322 323 324 324 324 325 326 327 327 325 324 322 323 324 324 324 324 323 322 320 318
316 316 315 314 313 312 311 311 310 310 310 310 311 311 309 308 307 306 304 303 303 302 301 301 301 301 301 301 300 299 299 299 299 299 300 300 301 301 301 301 302 302 303 303 304 305 307 307 308 308 309 310 312 313 313 314 315 315 315 316 316 316 317 318 318 319 320 321 322 324 323 324 325 326 325 325 324 322 322 324 323 322 323 323 320 319 318
314 314 313 312 314 314 312 310 309 309 309 309 310 310 309 308 307 305 304 303 303 302 301 301 301 303 305 304 300 299 299 298 298 298 299 299 299 299 299 299 300 300 300 301 302 303 305 306 306 307 308 309 310 311 312 313 313 314 314 315 315 315 315 315 316 318 318 318 320 322 322 321 323 325 325 324 322 321 322 323 322 320 321 321 319 318 318
314 315 315 314 314 313 311 309 308 308 309 309 309 311 311 308 307 306 305 304 303 302 302 301 302 305 308 305 300 299 299 298 298 298 298 298 297 297 297 298 298 298 299 300 300 301 302 303 304 305 306 307 309 309 309 310 312 313 313 313 314 314 315 315 315 316 316 316 316 317 318 318 319 322 323 322 320 320 320 321 320 319 319 319 318 317 318
315 315 314 313 312 310 309 308 307 307 308 308 311 315 313 308 307 307 305 304 304 303 302 303 303 304 306 303 299 299 299 298 298 298 298 298 298 297 297 297 298 298 298 299 299 300 301 301 302 303 304 305 306 305 306 308 310 310 310 309 311 313 314 315 315 315 315 315 314 314 315 315 316 318 321 321 320 319 319 319 319 318 317 317 317 317 317
313 313 312 310 309 309 307 307 307 307 308 310 313 315 311 306 306 307 306 305 305 304 304 304 302 302 302 301 299 299 299 299 299 299 299 299 298 298 298 298 298 298 298 299 299 300 300 300 301 301 302 303 303 303 303 305 305 306 306 306 308 311 313 314 314 315 314 314 314 314 313 313 314 316 318 318 318 318 318 319 318 317 316 316 317 316 316
311 310 310 310 310 308 306 306 306 307 310 313 312 309 307 305 305 305 305 305 305 304 304 303 301 300 300 299 299 299 299 299 299 299 299 299 299 299 299 299 299 299 299 299 299 299 300 300 300 300 300 301 301 301 301 302 302 302 303 304 305 307 310 312 313 313 314 314 314 314 313 312 312 313 314 314 314 314 315 316 315 313 312 312 313 313 313
311 311 310 312 312 307 304 306 308 308 310 310 307 305 305 305 304 303 303 303 303 303 302 300 300 299 299 299 299 298 299 299 299 299 299 299 299 299 300 300 300 300 300 300 300 300 300 300 300 300 300 300 300 300 300 300 300 300 301 301 302 303 305 308 310 311 312 313 314 314 314 313 312 312 312 312 313 312 312 313 312 311 310 310 310 310 311
311 313 311 310 308 305 304 307 308 307 307 307 305 304 303 303 303 302 302 301 301 302 301 300 300 299 299 299 299 298 299 299 299 299 299 299 300 300 300 300 300 300 300 300 300 300 300 300 300 300 300 301 300 300 300 299 299 299 300 300 300 300 301 303 306 308 309 311 312 313 313 313 312 312 312 312 312 313 313 313 313 312 312 312 312 312 312
307 309 307 305 305 304 305 306 306 306 306 306 306 305 303 302 302 302 302 301 301 301 301 300 300 299 299 299 299 298 298 298 298 299 299 299 299 300 300 300 300 300 300 300 300 300 300 300 300 300 300 300 300 300 300 300 299 299 299 300 300 300 300 300 301 303 305 308 309 310 311 311 311 311 311 311 311 311 312 312 312 311 311 311 311 311 311
305 305 304 304 304 305 305 305 305 305 305 305 305 304 303 302 302 302 302 301 301 301 301 300 299 299 299 298 298 298 297 297 298 298 298 298 298 298 299 299 299 299 299 299 299 299 299 299 299 299 299 299 300 300 301 301 301 300 300 300 300 301 301 300 300 300 302 304 306 307 307 308 309 309 310 310 310 310 310 309 309 308 308 309 309 308 308
305 305 304 304 304 304 304 304 304 304 304 304 304 303 303 302 302 302 302 301 301 300 300 299 299 298 298 298 298 298 297 297 298 298 298 298 298 299 299 299 299 299 299 299 299 298 298 298 298 299 299 299 299 299 300 300 301 301 301 301 301 301 301 301 301 300 299 301 303 304 305 306 306 307 307 308 308 307 306 306 305 305 305 305 305 305 305
305 305 304 303 303 304 304 304 303 303 303 303 302 302 302 302 302 301 301 300 299 299 299 298 298 298 298 298 298 298 298 298 298 299 299 299 299 299 299 299 299 299 299 299 299 299 299 299 298 298 299 299 299 299 300 300 301 301 301 301 301 301 301 301 301 301 300 299 300 300 302 303 304 305 305 305 305 305 304 304 303 303 303 303 303 303 302
304 303 303 303 303 303 303 303 303 302 302 302 302 301 301 301 300 300 299 299 299 299 299 299 299 299 299 299 299 299 299 299 299 299 299 299 299 299 299 299 299 299 299 299 299 299 299 299 299 298 299 299 299 299 300 300 300 300 301 301 301 301 301 301 301 300 300 300 299 299 299 299 300 301 302 303 304 304 303 303 303 303 302 302 302 303 303
304 303 303 303 303 303 302 302 302 302 302 302 301 300 300 299 299 299 299 299 300 300 300 300 300 300 300 299 300 300 300 300 300 300 300 299 299 299 299 299 299 299 299 299 299 299 299 299 299 299 299 299 299 299 299 300 300 300 300 300 300 300 300 301 301 300 300 300 300 299 298 298 298 298 298 298 299 300 301 302 302 302 302 302 302 302 302
303 303 303 302 303 303 302 302 302 301 301 301 300 300 299 299 300 300 300 300 300 300 300 300 300 300 300 300 300 300 300 300 300 300 300 300 299 299 299 299 299 299 299 299 299 299 299 299 299 299 299 299 299 299 299 299 299 299 299 299 299 299 299 300 300 300 300 300 299 299 299 299 299 299 298 298 297 297 297 298 298 299 299 300 300 300 300
302 302 302 302 302 302 301 301 301 300 301 300 300 300 300 300 300 300 300 300 300 300 300 300 300 300 300 300 300 300 300 300 300 300 300 300 300 300 299 299 299 299 299 299 299 299 299 299 299 299 299 299 299 299 299 299 298 298 298 298 298 298 298 299 299 300 300 300 300 300 299 299 299 300 300 299 299 298 298 298 297 297 297 297 297 297 297
302 302 302 302 302 301 301 301 301 301 301 301 300 300 300 300 299 299 298 298 298 298 299 299 299 299 299 300 300 300 300 300 299 300 300 300 300 300 300 299 299 299 299 299 299 299 300 299 299 299 299 299 299 299 299 299 298 298 297 297 297 297 297 298 298 299 299 300 300 300 300 300 300 300 300 300 300 300 299 299 298 298 297 296 296 296 296
301 301 301 302 301 301 301 301 301 301 301 301 301 301 300 299 298 297 297 297 297 297 297 297 297 298 298 298 299 299 299 299 298 299 299 299 299 300 300 299 299 299 299 299 299 299 299 300 299 299 299 299 299 299 299 299 299 298 297 297 297 296 296 296 297 298 298 299 300 300 300 300 300 300 300 300 300 300 300 299 299 298 298 297 296 296 296
301 301 301 301 302 302 301 300 300 300 300 300 300 300 299 298 298 297 297 297 297 297 297 297 297 297 297 297 298 298 298 298 298 298 298 297 298 299 299 299 299 299 299 299 299 299 299 300 299 299 299 299 299 299 299 299 299 298 298 298 297 296 296 297 298 298 298 298 299 299 299 300 299 299 299 300 300 300 300 299 299 299 298 298 297 296 296
301 301 301 301 301 301 300 299 299 299 298 299 299 299 299 299 298 298 298 298 297 297 297 297 297 297 297 297 297 297 297 297 297 297 297 297 297 297 298 298 298 297 298 299 299 299 299 299 299 297 297 298 299 299 299 298 299 299 298 298 297 297 297 297 298 297 298 298 299 299 299 299 299 299 299 299 300 300 299 299 299 299 299 298 298 297 297
301 301 301 300 300 300 299 299 299 299 298 298 298 298 298 298 298 298 298 298 298 298 298 298 298 297 297 297 297 297 297 297 297 297 296 296 296 296 296 296 294 294 296 298 299 298 298 298 298 297 296 297 298 298 298 298 298 299 299 298 297 297 297 298 297 297 297 298 298 298 298 299 299 299 299 299 299 299 299 299 298 298 298 298 297 297 297
301 301 300 300 300 300 300 299 299 298 298 298 298 298 298 298 298 299 299 298 299 299 298 298 298 298 297 297 296 296 296 296 296 295 294 293 293 292 292 292 292 292 294 297 297 297 297 297 297 297 296 296 297 298 298 298 297 298 299 298 297 297 297 297 297 297 297 298 298 297 297 298 298 298 298 299 299 299 299 299 298 298 297 297 296 297 297
301 300 300 300 300 300 300 300 299 299 299 299 299 299 299 299 299 299 299 299 298 298 298 298 298 297 296 296 295 294 294 294 293 293 293 293 293 292 292 291 291 292 293 294 294 294 295 295 295 295 295 296 296 297 297 297 297 297 298 298 298 297 297 297 297 297 297 297 297 297 296 296 297 297 298 298 298 299 298 298 297 297 296 296 296 296 295
301 301 301 301 300 300 300 300 300 300 299 300 299 299 299 299 299 299 299 299 298 298 298 298 298 297 296 295 294 293 292 292 292 293 293 294 294 293 293 293 293 293 293 294 294 294 294 295 295 294 294 295 295 295 296 296 296 297 298 298 298 298 297 297 297 297 297 297 297 297 296 296 296 296 297 297 298 298 298 297 297 296 296 295 295 295 295
301 301 301 301 301 301 300 300 300 300 300 300 300 300 300 300 299 299 299 299 299 299 299 298 298 297 296 294 293 292 292 292 293 293 294 294 294 294 294 294 294 295 295 295 295 295 295 295 295 295 294 294 294 295 295 295 295 296 297 298 298 298 297 297 297 297 297 297 297 297 296 296 296 296 296 297 297 297 297 297 296 296 296 295 295 295 295
301 301 301 301 301 301 300 300 300 300 300 300 300 300 300 300 300 299 299 299 299 299 299 298 298 298 296 294 293 292 292 292 293 293 294 294 294 294 295 295 295 295 295 295 295 294 294 294 295 295 294 294 294 294 294 294 293 294 295 297 298 298 298 297 297 297 297 297 296 297 297 296 296 296 296 296 297 297 297 297 296 296 296 295 295 295 295
300 300 300 301 300 300 300 300 300 300 300 300 300 300 300 300 300 299 299 299 299 299 299 299 298 298 296 295 294 294 294 294 295 295 295 294 294 295 295 295 295 295 295 295 295 295 294 295 295 295 294 294 294 294 295 294 294 294 295 297 297 298 298 298 297 297 297 296 296 296 296 296 295 295 296 296 297 297 296 296 296 296 296 295 295 295 294
300 300 300 300 300 300 300 300 300 300 300 300 300 300 300 300 300 300 300 299 299 299 299 299 298 298 297 297 296 296 296 297 297 297 296 296 296 295 295 295 295 295 296 296 296 295 295 295 295 295 295 294 294 294 295 296 295 295 295 297 298 297 297 298 298 297 297 296 296 296 296 296 295 295 295 296 296 296 296 296 296 295 295 295 295 295 294
300 300 300 300 300 300 300 300 300 300 300 300 300 300 300 300 300 300 299 299 299 299 299 299 299 298 298 298 298 298 298 298 298 298 298 297 297 296 296 296 296 296 296 296 296 295 295 294 295 295 295 295 295 294 294 294 295 296 296 296 297 297 297 297 298 298 297 297 296 296 296 296 295 295 295 295 296 296 296 296 296 295 295 295 295 295 294
301 301 301 300 300 300 300 300 300 300 300 300 300 300 300 300 300 300 299 299 300 299 299 299 299 299 299 299 298 298 298 298 298 298 298 298 297 297 296 297 297 297 297 297 297 296 295 294 294 295 295 295 295 295 293 292 293 296 297 296 296 297 297 297 297 298 297 297 296 296 296 296 296 295 295 295 295 296 296 296 296 296 295 294 294 294 294
301 301 301 301 300 300 300 300 300 300 300 300 300 300 300 300 300 300 300 300 300 299 299 299 299 299 299 299 299 299 299 299 298 298 298 298 298 297 297 297 297 297 297 297 297 296 295 294 294 295 295 295 295 295 294 292 292 295 297 297 297 297 297 297 297 298 298 297 296 296 296 296 296 295 295 295 295 296 296 296 296 295 295 294 294 294 294
301 301 301 300 300 300 300 300 300 300 300 300 300 300 300 300 299 299 300 300 300 299 299 299 299 299 299 299 299 299 299 299 298 298 298 298 298 298 298 298 298 298 297 297 297 297 296 295 294 295 295 295 294 295 295 294 292 293 295 297 297 297 297 297 297 297 297 297 297 296 296 296 296 295 295 295 295 295 295 295 295 295 295 294 294 294 294
300 300 300 300 300 300 300 299 300 300 300 299 299 299 299 299 299 299 299 299 300 299 299 299 299 299 299 299 299 299 298 298 298 298 298 298 298 298 298 298 298 298 298 297 297 297 296 295 295 295 295 295 295 295 295 295 293 292 293 296 297 297 297 297 297 297 297 297 297 297 296 296 296 296 295 295 295 295 295 295 295 295 294 294 294 294 294
300 300 300 300 300 300 300 299 299 299 299 299 299 299 299 299 299 299 299 299 300 299 299 299 299 299 299 299 299 299 299 298 298 298 299 299 298 298 298 298 298 298 298 297 297 296 296 296 295 295 295 295 295 295 295 295 294 293 292 294 296 297 297 297 297 297 297 297 297 297 297 296 296 296 296 296 295 295 295 295 295 295 294 294 294 295 294
299 300 299 299 299 299 299 299 299 299 299 299 299 299 299 299 299 299 299 299 299 299 299 299 299 299 299 299 299 299 299 299 299 299 299 299 299 299 299 299 298 298 298 297 296 296 296 296 295 295 295 295 295 295 295 295 295 293 292 292 294 296 296 296 296 295 295 296 296 296 297 297 296 296 296 296 296 295 295 295 295 294 294 294 295 295 295
299 299 299 299 299 299 299 299 299 299 299 299 299 299 298 299 299 299 299 299 299 299 299 299 299 299 299 299 299 299 299 299 299 299 299 299 299 299 298 298 298 298 298 297 296 295 296 296 296 296 295 295 295 296 295 294 294 294 292 291 292 292 293 294 293 293 294 295 295 296 296 296 296 296 296 296 296 296 295 295 295 295 295 295 295 295 295
299 299 299 299 299 299 299 299 299 299 299 299 299 298 298 298 299 299 299 299 299 299 299 299 299 299 299 299 299 299 299 299 299 299 299 299 299 298 298 298 298 298 297 297 296 296 296 297 297 296 296 296 296 296 295 294 294 293 293 292 291 291 292 293 294 293 293 294 295 296 296 296 296 296 296 296 296 296 296 295 295 295 295 295 295 295 295
299 299 299 299 299 299 299 299 299 299 299 299 299 299 298 298 299 299 299 299 299 299 299 299 299 299 299 299 299 299 299 299 299 299 299 299 298 298 297 297 297 297 297 296 296 296 297 297 297 296 296 296 296 295 295 294 294 293 293 292 292 292 293 293 294 294 293 293 293 294 294 295 296 296 295 295 295 296 296 296 296 295 295 295 295 295 295
299 299 299 299 299 299 299 299 299 299 299 299 299 299 299 299 299 299 299 299 299 299 299 299 299 299 299 299 299 299 299 299 299 299 299 298 298 298 297 297 297 297 297 297 297 297 297 297 296 296 296 296 295 295 294 294 294 294 293 292 292 292 293 293 293 293 293 293 292 292 292 292 293 294 294 295 295 295 295 296 296 296 295 295 295 295 295
299 299 299 299 299 299 299 299 299 299 299 299 298 299 299 299 299 299 299 299 299 299 299 299 299 299 299 299 299 299 299 299 299 299 299 298 298 298 298 297 297 297 297 297 297 297 296 296 296 296 296 295 295 295 294 294 294 294 293 293 292 292 292 292 292 293 293 293 293 292 292 291 291 292 293 294 294 295 295 295 295 296 296 296 296 295 295
299 299 299 299 299 299 298 299 298 298 298 298 298 299 299 299 299 299 299 299 299 299 299 299 299 299 299 299 299 299 299 299 298 298 298 298 298 298 298 297 297 297 297 297 296 296 296 296 296 296 296 296 295 295 295 295 294 294 293 293 293 292 292 292 292 292 292 292 292 292 292 292 291 291 292 293 294 294 295 295 295 295 296 296 296 296 295
299 299 299 299 299 298 298 298 298 298 298 298 298 299 299 299 299 299 299 299 299 299 299 299 299 299 299 299 299 298 298 298 298 298 298 298 298 298 298 297 297 297 297 297 296 296 296 296 296 296 296 296 296 296 295 295 295 294 293 293 292 292 292 292 292 292 292 292 292 292 292 292 291 290 290 291 293 294 294 295 295 295 295 295 296 296 295
299 298 298 298 298 298 298 297 298 298 298 298 298 299 299 299 298 298 298 298 298 299 299 298 299 299 299 298 298 298 298 298 298 298 298 298 298 297 297 297 297 297 297 297 296 296 296 296 296 296 296 295 295 295 295 295 295 295 294 293 293 293 292 292 292 292 291 291 291 291 291 291 290 290 290 290 291 292 293 294 294 295 295 295 295 295 295
299 299 299 299 298 298 297 298 298 298 299 299 298 299 299 298 298 298 298 298 298 298 298 298 298 298 298 298 298 298 298 298 298 297 297 297 297 297 297 297 297 297 296 296 296 296 296 296 296 296 296 295 295 294 295 295 295 295 294 294 293 293 292 292 291 291 291 290 290 291 291 291 290 290 290 290 290 291 292 292 293 294 295 295 295 294 294
Wind_Speed
8 7 7 9 12 10 9 9 8 9 10 10 8 4 1 2 5 6 9 10 8 6 7 6 5 6 7 7 7 8 9 10 9 10 11 11 13 14 15 16 16 16 17 17 17 17 18 20 22 22 23 23 23 24 25 25 24 22 17 12 12 12 11 10 10 12 15 18 21 22 23 28 32 32 31 30 28 29 32 31 27 24 25 24 22 22 26
9 8 6 7 12 11 10 12 10 10 11 12 11 7 4 6 5 8 13 12 7 5 5 6 7 8 8 9 10 10 10 10 9 10 12 12 13 14 14 16 16 16 16 16 16 16 19 22 24 24 24 25 24 24 25 27 28 26 22 18 17 16 13 11 10 11 12 14 18 20 24 30 34 33 32 31 29 28 30 31 29 27 25 23 21 23 27
6 7 6 7 11 12 12 11 10 9 9 9 9 7 6 8 8 9 13 11 6 4 5 8 8 8 8 10 11 11 9 9 9 10 11 11 13 14 14 15 16 15 15 15 16 17 19 22 25 25 25 24 24 24 24 27 29 29 25 22 20 20 18 13 10 11 12 12 13 16 21 30 35 33 32 31 29 28 30 32 31 29 26 24 22 23 27
2 2 4 7 9 12 12 10 10 9 7 6 5 4 4 4 7 11 11 6 3 4 6 8 8 8 9 10 10 9 8 9 9 10 11 12 13 14 14 15 15 16 17 17 17 18 20 21 24 24 24 24 25 25 26 27 29 29 28 24 21 20 19 17 14 12 12 12 12 14 18 27 34 33 32 30 28 28 31 33 32 29 27 26 24 23 26
1 3 1 3 5 7 6 5 6 5 3 5 5 5 6 4 4 8 6 3 5 6 6 6 6 7 8 9 9 9 8 8 8 9 10 11 12 13 13 14 15 16 17 18 18 18 19 20 21 22 23 23 25 26 26 26 27 28 28 26 22 20 19 18 17 15 13 13 13 12 15 25 32 33 32 31 29 30 33 34 33 30 28 27 25 24 25
4 4 2 4 3 2 1 3 3 2 3 7 8 6 6 6 4 5 6 6 7 6 6 6 6 7 8 9 10 9 8 8 8 9 10 10 11 11 12 13 15 16 16 17 16 17 18 18 19 19 20 21 22 23 24 24 24 25 25 23 20 17 17 18 18 17 15 12 13 12 15 23 30 31 32 32 32 33 33 34 33 31 29 29 26 24 26
4 1 3 3 2 2 1 2 4 6 8 11 13 10 8 8 8 9 10 8 7 8 9 10 11 11 11 11 11 10 10 10 9 9 10 11 11 12 13 14 14 15 16 17 16 17 18 18 17 18 19 19 19 21 22 23 22 21 21 21 19 16 16 17 16 16 14 9 12 13 16 22 28 30 33 34 33 34 34 34 33 31 30 29 28 26 26
3 2 2 1 2 1 2 2 3 5 5 6 8 9 8 7 6 7 8 8 9 11 12 11 13 14 13 14 14 12 10 10 9 9 10 11 12 13 14 14 15 15 15 16 16 17 17 16 17 18 18 18 17 18 20 21 19 18 19 20 21 19 17 17 15 13 11 8 12 15 17 23 28 30 33 35 33 33 35 35 34 34 32 30 28 27 27
2 3 2 2 2 1 1 1 0 1 1 2 1 4 4 3 4 7 8 9 9 11 12 13 14 12 10 11 12 11 10 9 9 9 9 10 12 12 13 13 14 14 14 14 15 15 15 16 16 17 17 17 15 15 17 19 18 18 18 20 23 22 20 19 16 12 9 6 10 15 18 23 28 31 32 34 33 31 33 35 34 34 34 30 28 27 26
2 4 3 2 2 2 2 2 1 2 3 3 2 3 2 2 4 9 11 9 10 11 11 13 11 4 3 4 6 8 8 7 8 9 9 10 12 12 13 13 13 14 14 14 14 14 14 15 15 15 16 15 14 14 15 16 17 18 18 19 20 22 22 22 19 15 9 3 6 13 16 19 26 29 30 31 32 32 33 35 33 31 31 29 27 26 26
2 4 3 2 2 2 2 2 2 5 5 2 2 2 2 0 4 11 12 11 12 13 13 12 7 1 1 1 2 4 5 7 8 10 11 12 13 13 14 14 14 14 14 13 13 14 15 15 15 14 15 14 14 15 16 16 16 17 18 18 18 18 20 21 21 20 15 10 4 5 13 18 23 26 27 27 30 31 32 32 30 28 28 28 28 28 27
3 3 2 1 1 1 1 1 2 5 4 1 1 1 1 2 6 11 13 12 13 14 13 11 4 2 0 3 3 2 5 7 8 9 11 11 12 14 14 15 14 14 13 13 14 16 16 16 15 14 13 13 14 16 17 17 17 17 18 18 16 14 13 16 19 22 21 20 18 12 7 12 20 25 26 25 24 23 24 26 27 28 28 29 29 29 28
3 3 3 1 1 0 1 2 4 4 1 2 1 1 3 6 9 11 12 11 11 12 12 9 4 4 5 9 8 6 7 8 8 9 10 10 11 12 13 13 13 13 13 14 16 16 16 15 15 14 14 14 15 17 17 18 19 19 18 17 16 13 10 10 13 16 18 20 22 22 18 12 13 19 23 24 22 20 21 25 28 29 30 31 31 30 28
2 3 3 1 0 0 1 2 3 2 1 2 2 4 9 13 13 10 10 10 10 10 11 11 12 13 13 13 11 9 8 9 9 9 10 10 11 12 11 11 11 11 12 13 14 14 14 15 15 15 16 16 17 18 19 20 19 18 17 17 17 15 12 10 10 12 13 14 16 18 19 16 14 13 14 16 19 21 23 26 26 24 23 24 25 25 25
3 3 3 2 2 1 2 2 1 2 0 4 9 13 14 15 15 13 13 13 13 14 17 18 18 17 15 13 12 10 9 8 8 9 9 10 11 11 12 12 12 12 13 13 13 13 14 14 15 16 17 18 18 19 20 20 18 17 17 17 17 17 16 13 12 11 11 11 12 14 14 12 11 12 12 11 12 14 16 18 19 16 14 15 16 17 18
2 3 2 2 1 1 0 3 3 4 8 15 18 18 16 14 15 16 16 16 16 19 21 21 19 17 15 13 11 10 8 8 8 8 9 9 10 11 12 13 13 14 15 15 15 15 14 14 14 15 16 17 18 19 19 17 15 17 18 18 18 19 19 17 15 14 12 10 9 10 11 10 8 9 9 7 6 6 7 9 11 11 10 10 11 12 13
3 4 3 3 5 8 10 13 14 16 18 19 19 19 18 16 16 18 20 20 20 20 20 20 18 16 15 13 11 10 10 10 11 11 10 10 10 11 11 12 13 14 15 16 17 17 17 16 16 15 15 15 16 17 17 14 13 13 15 17 20 22 23 22 19 16 14 13 11 9 8 7 7 7 7 6 5 4 3 4 5 6 7 7 6 7 8
6 8 8 7 10 14 18 20 20 20 21 19 17 18 20 18 18 19 21 21 20 19 19 19 19 17 16 14 13 12 13 13 13 14 13 13 13 13 13 13 13 14 15 16 17 18 18 18 18 18 17 16 16 15 13 13 13 12 11 13 17 20 23 25 23 20 17 15 14 13 11 9 8 9 8 7 7 7 6 6 6 6 6 6 6 6 6
4 5 5 6 11 16 20 22 21 21 20 19 18 20 21 21 21 20 20 20 20 19 19 20 21 19 17 16 14 12 12 12 12 12 13 13 13 14 13 13 13 14 15 15 17 18 18 17 17 17 17 18 18 15 12 11 11 12 12 14 15 17 19 22 23 22 20 18 16 14 13 12 11 11 11 10 10 12 12 11 11 11 11 10 9 8 7
4 6 8 11 15 18 20 22 22 22 22 21 20 22 23 23 22 21 20 20 21 21 20 20 20 18 16 14 13 11 10 10 10 10 10 9 10 10 10 11 11 12 13 14 15 15 16 16 16 15 16 17 17 17 15 13 10 9 10 13 15 16 17 19 21 21 20 19 18 16 14 12 12 12 12 11 12 13 12 10 10 11 11 11 10 9 9
6 7 11 14 15 14 15 19 22 22 23 23 22 22 23 24 24 23 22 21 21 21 20 19 18 17 15 13 13 12 11 10 9 9 8 7 7 7 8 9 9 10 11 13 14 13 14 15 15 14 16 18 17 16 16 17 15 12 11 11 12 13 15 17 19 19 19 18 18 17 15 13 13 13 14 12 11 11 11 11 10 10 9 9 8 7 7
3 4 8 10 9 8 11 18 22 22 22 24 24 24 24 25 25 24 22 21 19 18 17 16 16 16 14 13 12 11 11 11 11 10 10 9 9 9 9 9 9 8 10 12 13 13 13 14 14 14 15 18 19 16 14 14 15 15 15 15 15 15 13 13 14 16 17 18 17 17 17 16 15 15 15 15 13 12 11 11 10 8 7 6 5 3 3
7 11 13 13 13 13 15 21 23 22 22 24 25 25 25 24 23 22 21 19 17 15 14 12 12 12 12 11 11 11 11 10 10 10 11 11 11 10 10 10 9 8 8 9 10 11 12 13 14 13 13 15 16 16 15 14 14 15 16 17 18 18 17 14 12 11 12 14 15 15 15 16 15 15 15 15 16 15 14 12 10 8 7 6 5 4 2
14 16 19 21 23 22 21 23 23 21 21 22 24 24 23 22 21 19 18 17 16 14 12 10 9 9 10 9 8 8 9 8 7 7 8 7 8 8 7 7 7 7 8 8 8 9 10 10 12 13 13 13 14 14 14 15 16 16 18 19 18 16 15 15 14 12 10 9 10 11 12 13 14 14 13 13 15 16 15 13 12 11 10 9 8 7 5
19 20 24 27 29 27 24 23 21 19 19 20 22 22 22 22 20 19 19 19 17 16 15 13 11 10 10 9 8 7 8 7 6 6 5 5 5 4 4 4 5 6 8 9 9 9 9 8 9 11 12 12 13 13 12 12 13 14 16 18 17 15 13 11 11 11 10 9 8 7 8 9 10 11 12 12 12 14 14 13 13 13 11 10 9 7 6
26 28 30 30 29 27 25 22 20 19 19 20 22 23 23 22 21 20 20 20 19 18 17 17 15 14 12 11 9 7 6 6 5 5 5 4 3 2 2 3 4 5 5 6 7 8 8 7 8 9 10 11 12 12 12 12 11 11 12 15 16 15 12 9 9 9 9 8 7 6 5 6 7 7 8 8 9 11 11 12 13 13 12 11 10 8 7
30 31 32 29 25 23 23 22 21 21 20 22 24 25 23 22 20 19 18 18 17 17 16 15 15 14 12 11 9 8 6 5 5 5 5 5 4 3 1 1 2 4 4 4 4 4 5 5 7 9 10 10 11 12 13 13 10 9 10 12 15 15 11 8 8 9 7 6 6 6 5 5 6 5 5 5 6 7 8 9 10 11 12 12 11 10 9
29 29 29 27 25 24 24 24 24 23 23 24 24 24 22 20 18 16 16 15 14 13 13 12 11 10 10 9 8 7 6 5 4 4 4 4 4 4 3 2 3 4 4 3 3 3 3 3 5 7 9 10 10 11 13 13 11 9 9 11 13 13 11 9 9 10 8 6 6 6 5 4 4 4 3 3 4 4 6 7 8 9 10 11 11 11 10
26 25 26 27 28 28 26 25 25 24 23 22 22 21 20 18 16 15 13 11 10 9 8 8 8 7 6 5 4 4 3 3 2 1 2 3 4 3 3 4 4 3 3 3 3 4 3 3 3 5 8 9 9 9 10 12 12 10 9 9 11 12 11 9 10 11 10 9 8 8 6 5 4 3 3 2 2 2 4 6 7 8 9 10 10 10 9
24 24 26 28 28 27 26 26 25 24 23 22 21 19 17 16 14 13 11 8 7 6 6 7 7 5 4 3 3 2 2 2 1 2 3 4 4 4 3 3 3 2 1 1 2 4 4 4 4 5 7 8 8 7 8 10 11 10 9 8 9 10 10 9 8 9 9 9 10 11 10 9 7 5 2 1 1 0 2 4 6 7 9 9 9 8 9
25 25 27 27 26 26 26 26 25 24 23 22 20 18 16 14 13 11 9 7 7 7 7 7 7 5 4 3 3 3 3 3 3 4 5 8 9 8 6 4 3 3 3 3 3 4 5 5 5 5 6 7 7 6 6 8 9 9 9 7 6 7 9 8 8 7 7 7 9 12 13 13 11 8 4 1 1 1 1 3 5 6 7 8 7 7 8
25 25 24 25 25 25 25 24 24 23 22 20 18 17 16 14 12 10 8 8 8 8 7 7 7 6 4 3 2 3 4 4 5 5 7 9 10 10 9 8 7 7 7 6 6 6 6 6 6 6 6 7 7 7 7 8 8 8 7 6 5 5 6 6 6 7 7 7 8 10 12 13 13 10 7 4 2 1 1 1 3 5 6 6 6 7 8
26 25 25 26 26 25 24 24 22 21 19 18 16 14 13 12 11 9 7 7 7 7 6 6 6 6 5 4 3 4 4 4 5 5 7 8 8 8 9 9 9 9 9 8 8 8 7 7 7 7 7 8 8 8 9 10 10 8 6 5 5 5 6 5 6 6 7 7 6 7 9 11 12 11 9 6 3 2 2 1 2 3 5 5 6 7 8
25 25 25 25 25 23 23 23 21 19 17 15 13 11 10 10 9 8 6 5 6 6 5 5 5 5 5 4 4 4 4 4 5 6 7 7 7 7 6 7 7 8 8 9 9 9 9 9 9 9 9 10 10 11 12 13 12 10 7 6 5 5 6 6 6 6 7 8 7 6 7 9 11 11 10 7 4 3 2 1 2 3 4 5 6 8 9
21 22 22 22 20 19 19 19 19 18 16 14 12 11 10 10 9 9 7 6 5 6 6 5 4 5 5 6 6 6 6 6 6 6 6 6 5 5 4 4 4 5 6 7 7 8 9 10 10 10 11 11 11 11 10 11 11 9 7 6 6 6 6 7 7 7 6 6 6 5 6 7 10 11 10 7 3 3 2 1 2 3 4 5 6 8 9
20 20 21 21 20 19 17 17 17 16 15 14 13 12 10 11 11 10 8 7 6 6 6 6 5 6 7 7 7 7 7 7 7 6 5 4 4 3 3 3 4 4 5 5 6 7 8 9 9 11 12 14 14 13 11 10 10 7 5 5 6 7 8 8 8 7 5 4 3 4 6 7 9 11 10 6 3 4 3 1 2 3 4 6 7 7 8
19 19 19 20 21 20 18 17 16 15 13 13 12 11 11 12 11 10 9 8 7 6 7 6 6 7 8 8 7 6 6 5 5 4 4 4 3 2 2 2 3 5 5 5 5 6 7 7 8 9 11 14 16 16 13 10 8 7 5 6 7 8 9 10 9 8 6 3 2 3 6 7 8 10 11 8 3 4 3 2 3 3 5 8 8 5 4
18 17 16 18 20 19 17 16 16 14 13 13 12 10 11 12 12 9 9 8 7 7 7 7 6 7 7 6 5 4 3 3 2 2 2 2 2 1 1 2 3 4 5 5 4 5 6 6 7 8 10 12 15 17 16 12 8 6 5 6 7 8 9 10 10 9 8 5 3 3 5 7 7 8 10 8 4 3 4 4 5 5 7 9 7 3 2
18 17 16 18 20 19 16 16 16 15 13 13 12 11 12 13 11 8 8 8 8 8 8 8 7 6 5 4 3 3 3 2 1 0 1 1 0 1 2 3 3 4 4 4 4 5 6 7 7 8 9 11 14 17 17 15 11 6 5 6 7 8 8 8 8 9 9 7 5 4 5 7 8 7 8 7 5 4 5 6 6 6 7 6 4 2 2
19 19 19 21 21 19 17 15 15 14 13 12 12 11 12 12 10 8 8 9 9 9 8 7 6 5 4 4 3 2 2 2 1 2 3 3 3 3 4 4 4 4 5 4 4 4 6 7 7 8 8 10 13 16 16 17 15 10 7 7 8 8 8 9 8 8 8 9 8 7 6 7 7 7 7 6 5 5 6 7 7 6 6 5 4 3 4
22 21 21 20 20 18 15 14 14 14 13 11 10 10 11 12 10 9 9 8 8 9 9 7 6 5 4 3 2 2 2 2 3 3 4 4 4 5 5 5 4 4 5 5 4 4 5 6 7 7 7 9 12 14 15 16 16 13 10 9 8 8 8 9 9 9 9 9 10 9 8 7 7 8 7 7 6 6 6 7 7 6 5 5 6 6 5
22 21 20 19 18 16 15 15 16 15 14 12 10 9 10 11 10 10 9 8 8 8 8 7 6 6 4 3 3 3 2 3 4 4 4 5 5 5 6 7 6 5 4 5 4 4 4 5 6 6 6 9 12 14 13 14 15 14 12 10 9 9 9 10 11 12 12 12 13 13 12 10 9 9 8 8 7 7 7 8 8 6 4 6 7 7 6
22 21 19 18 17 17 17 17 16 14 13 12 11 9 9 10 10 10 10 9 8 7 7 7 6 6 5 5 4 4 4 5 5 5 5 5 5 6 8 8 7 6 5 5 5 4 4 5 6 6 6 9 12 13 12 12 12 13 13 11 10 11 11 11 12 12 13 13 13 13 14 13 11 10 10 9 8 8 7 7 7 6 6 6 6 5 5
21 19 18 17 17 18 17 16 15 14 13 13 11 8 7 8 10 11 12 11 9 8 8 8 7 7 7 7 6 6 5 6 6 5 5 5 6 8 9 8 7 6 5 5 5 5 5 6 6 6 7 8 10 11 11 10 11 13 13 13 11 10 9 9 10 12 12 11 9 9 11 12 11 12 12 12 11 11 9 7 6 7 8 9 8 7 6
19 18 17 17 18 18 16 15 15 15 13 13 12 10 8 8 9 11 11 11 9 9 9 8 7 7 8 8 7 6 5 5 4 4 5 6 7 8 8 7 6 5 5 5 5 5 6 7 7 7 7 8 9 10 9 9 10 12 13 12 9 6 5 7 9 12 14 12 7 7 9 10 11 11 11 12 13 14 13 10 8 7 8 10 10 10 8
19 17 17 17 17 16 14 14 14 15 14 13 13 12 10 10 10 9 8 9 10 10 10 8 7 7 7 7 7 6 6 5 5 4 5 5 5 6 5 4 3 4 5 6 6 6 7 8 8 7 7 8 8 8 8 8 9 11 12 10 7 4 4 6 7 9 11 12 9 7 8 9 11 11 10 10 11 13 14 13 12 10 10 10 10 10 10
19 18 17 17 16 15 14 13 13 14 15 14 12 11 12 12 11 10 8 8 9 10 9 8 7 7 7 7 7 7 7 6 5 5 5 5 4 4 3 2 1 2 4 5 6 7 8 8 8 7 7 7 7 7 7 7 9 10 10 9 7 6 5 6 7 8 8 9 10 9 9 9 11 12 12 11 11 11 12 12 13 13 12 12 12 12 12
20 18 18 17 16 16 15 14 13 14 14 12 11 11 13 14 13 12 10 9 10 10 9 8 7 7 7 6 6 6 6 6 6 6 6 5 4 4 3 2 1 2 4 5 6 7 8 8 7 7 7 7 7 7 8 8 9 10 10 9 8 7 6 5 7 9 10 10 9 10 10 11 11 12 11 10 11 13 13 12 13 15 15 14 13 14 14
19 19 18 17 16 15 14 13 13 13 13 12 10 12 14 15 14 12 11 11 10 10 9 8 8 7 7 7 6 5 6 7 6 6 6 5 5 4 4 3 3 4 5 6 7 8 9 9 8 8 8 8 9 9 9 9 10 10 11 10 9 9 8 7 7 8 10 10 9 10 10 11 12 12 10 8 9 12 13 13 13 14 15 15 15 14 14
18 18 17 16 15 14 13 13 13 14 14 12 11 12 14 13 12 12 11 11 10 9 8 8 9 9 9 9 8 7 8 8 7 6 6 6 6 6 6 6 6 7 7 7 8 9 10 10 9 9 8 9 9 10 11 11 11 11 11 11 10 10 10 10 10 10 10 10 9 9 9 11 12 12 11 9 8 9 11 12 13 14 14 15 14 13 13
18 17 16 15 13 12 12 12 13 13 13 12 12 13 14 13 12 11 11 11 11 10 10 10 10 10 10 10 9 9 9 8 8 7 7 8 8 8 8 8 9 9 9 9 9 10 10 10 10 10 9 9 10 11 11 12 13 13 13 13 12 12 11 11 12 12 12 12 11 11 11 11 12 12 11 9 9 9 9 9 11 14 16 14 11 10 10
17 16 15 15 14 13 12 11 12 12 12 12 13 14 15 14 13 12 12 12 11 10 10 10 10 10 10 9 9 8 8 8 8 8 8 8 9 9 9 9 9 9 9 9 9 9 9 10 11 11 12 12 12 11 11 12 12 13 13 14 14 14 13 12 12 12 12 12 12 12 12 12 12 12 11 9 9 9 9 8 9 10 12 13 12 12 11
Wind_Direction
44 46 64 78 87 83 67 59 42 33 47 64 72 64 1 122 137 166 161 139 122 117 113 108 108 104 99 88 72 61 52 40 27 27 31 27 21 20 23 25 27 31 32 30 28 24 20 18 16 15 14 12 11 9 6 5 2 357 354 345 338 329 310 293 285 272 257 246 241 237 228 219 211 205 202 200 198 203 206 202 200 203 199 196 195 190 187
43 23 29 76 92 88 64 52 47 44 55 65 68 64 56 64 90 128 127 113 94 88 96 92 93 97 101 95 78 63 55 44 32 33 33 25 17 16 17 18 21 27 31 31 28 23 20 19 15 14 13 10 7 4 3 5 3 359 355 350 346 342 329 307 298 292 275 256 246 240 226 216 212 206 203 202 201 204 207 202 197 196 193 190 188 185 185
32 13 37 70 85 87 68 43 31 35 49 56 54 56 63 67 78 98 104 102 93 85 90 89 86 86 85 79 69 59 50 44 41 38 33 24 18 17 16 17 20 23 27 29 27 22 22 19 15 14 11 5 0 358 358 1 1 357 351 345 343 344 340 328 311 297 290 278 262 248 229 216 212 208 204 200 198 203 208 205 196 190 189 185 182 182 185
9 341 78 80 76 79 66 36 15 17 34 55 52 40 39 75 120 118 110 109 118 118 107 92 77 72 70 64 63 61 49 46 49 44 36 28 22 20 18 17 19 21 22 23 22 21 21 18 15 13 9 2 358 356 355 356 355 353 350 347 343 341 340 337 327 308 296 288 273 259 238 218 210 208 202 198 197 200 206 205 195 187 188 186 181 182 184
140 237 195 42 45 65 54 8 349 353 26 74 69 42 24 26 115 127 122 126 127 126 122 103 78 70 68 62 60 59 49 46 49 48 43 35 30 29 23 19 20 21 20 21 20 20 20 18 16 12 6 3 1 359 357 355 352 351 351 350 346 339 335 336 334 325 309 289 276 274 250 223 212 205 200 198 198 198 202 205 195 186 188 188 183 183 185
150 221 315 19 47 95 22 322 331 356 83 82 75 58 36 35 65 98 101 105 113 118 118 113 100 83 75 71 67 61 55 50 46 47 46 40 37 36 30 26 24 21 20 20 20 21 23 22 17 12 8 7 4 2 359 356 353 353 354 354 351 342 332 332 334 330 320 288 265 272 256 226 211 203 198 197 196 196 201 202 194 186 189 189 185 185 187
134 152 21 55 180 203 88 46 66 92 98 91 84 71 50 54 74 93 99 102 108 110 109 109 107 100 90 80 69 60 58 54 48 45 43 38 35 32 29 29 27 24 23 21 20 23 25 24 19 14 12 9 6 4 0 354 354 358 360 1 4 359 345 338 334 328 322 284 238 244 247 228 209 200 197 194 193 197 199 196 190 188 190 191 190 189 189
118 93 46 136 173 131 93 86 84 95 96 89 79 61 42 46 70 97 106 107 111 113 114 118 116 109 96 78 63 53 52 51 47 46 44 42 40 36 33 31 28 29 29 26 26 25 23 25 23 19 17 11 7 9 4 357 359 6 8 11 16 16 6 356 349 336 325 288 231 221 223 217 205 197 195 192 194 199 194 188 188 190 190 192 193 191 190
121 109 86 101 115 142 199 226 175 86 41 280 68 69 48 33 74 111 119 119 124 127 130 134 127 111 88 68 50 37 39 46 46 48 49 50 50 47 45 42 39 40 38 35 36 31 25 27 27 24 22 14 10 15 11 2 4 11 17 20 23 25 24 19 12 359 336 291 229 210 206 205 199 196 196 192 193 196 190 185 189 189 186 190 191 189 191
108 108 110 121 143 202 191 170 232 349 349 272 237 106 91 21 101 132 136 132 140 144 146 150 144 106 50 50 27 18 32 50 56 58 60 61 61 59 58 56 54 53 49 46 45 38 32 34 32 29 26 15 8 19 21 12 6 7 18 27 26 26 31 32 28 20 6 327 219 202 196 194 194 195 195 190 187 190 187 185 187 185 181 184 186 185 187
122 118 125 145 178 200 152 159 275 349 2 280 238 97 119 178 146 153 148 143 156 162 162 168 172 30 6 123 4 5 49 71 71 70 69 69 68 67 65 63 61 61 59 56 51 43 40 41 39 35 30 18 13 25 32 28 17 10 19 30 28 26 33 40 43 42 39 36 39 189 187 181 178 182 187 185 183 184 183 182 184 183 179 181 182 181 182
124 104 107 113 141 179 115 162 303 344 357 248 202 126 190 162 150 163 161 157 169 173 171 175 180 352 232 158 136 103 95 87 82 79 74 72 72 71 69 67 65 64 61 56 50 45 44 45 44 40 35 27 27 34 35 34 33 27 26 30 30 30 37 45 53 57 58 58 58 67 121 160 161 163 170 173 171 175 178 179 181 181 178 178 178 176 177
93 88 107 101 37 296 272 301 314 339 15 180 202 221 164 121 120 147 160 160 171 180 181 176 137 78 115 136 131 121 104 93 89 86 82 82 81 77 75 73 69 65 60 56 53 51 48 46 44 44 42 38 39 42 38 36 39 37 33 31 32 35 39 45 56 64 65 65 68 70 71 81 116 139 152 159 162 174 187 185 179 176 175 176 175 172 172
110 97 96 96 77 289 297 307 323 7 139 202 197 130 130 122 115 124 139 142 151 161 157 144 124 114 120 127 125 118 107 99 93 89 89 90 87 84 81 77 72 69 66 63 61 59 55 51 47 46 47 48 49 49 46 44 42 37 34 35 36 39 43 45 53 66 72 73 76 80 77 70 73 93 119 137 147 158 171 174 170 162 157 158 159 156 157
119 92 82 123 162 268 289 262 298 350 50 154 131 116 118 124 121 119 118 122 133 139 130 125 126 127 126 126 124 117 109 98 89 89 94 93 87 82 78 74 71 71 70 66 62 58 55 54 52 50 50 53 56 58 57 56 52 47 45 44 43 44 48 50 50 57 71 84 89 92 91 85 77 81 91 104 117 128 139 150 157 152 143 145 146 144 149
124 127 154 163 115 12 240 164 128 96 122 138 133 120 114 117 123 124 121 120 129 134 128 125 129 131 128 126 123 113 101 88 82 86 94 92 85 79 76 74 73 71 71 69 65 62 58 55 54 52 50 53 58 62 62 61 61 61 60 58 55 51 50 52 54 52 56 71 89 98 102 106 109 107 107 108 107 104 107 124 139 140 139 149 157 159 163
82 96 116 119 89 84 102 114 114 115 125 136 138 128 121 121 125 127 126 126 129 130 126 126 129 128 125 122 117 108 99 93 90 90 91 87 81 77 76 76 72 68 68 68 64 62 63 63 61 57 51 50 54 58 58 57 60 65 66 65 63 59 54 52 52 51 51 56 64 75 91 109 125 127 132 145 144 136 130 119 112 110 112 118 125 133 142
92 70 70 88 89 90 99 107 113 120 127 133 134 127 124 127 130 128 127 130 133 131 128 126 125 124 122 119 114 107 101 97 94 92 89 85 81 80 78 76 72 69 67 64 58 56 58 62 62 59 54 49 48 48 50 53 57 62 68 68 66 63 59 55 52 51 52 54 58 64 71 83 100 110 117 130 131 123 118 111 103 104 110 111 111 116 122
124 78 77 91 92 97 104 107 111 118 123 127 127 124 124 128 130 129 129 130 131 129 127 124 123 123 121 117 113 108 102 97 94 90 88 85 81 77 71 68 68 68 65 62 58 56 56 57 56 54 51 49 47 45 44 46 50 58 65 69 69 67 63 59 55 53 52 52 56 62 69 74 84 93 97 102 104 99 93 92 95 98 100 99 97 98 101
90 101 114 107 99 104 111 114 117 120 121 123 123 123 126 129 128 128 129 128 127 125 123 121 120 120 119 117 116 114 108 103 98 92 90 85 77 69 63 60 60 61 60 59 56 55 54 52 51 49 48 47 46 47 47 43 35 41 53 60 66 71 70 65 61 57 55 54 54 57 64 72 80 86 89 96 103 101 95 92 91 91 92 92 88 82 81
89 99 118 113 100 97 106 114 121 124 124 124 124 125 128 129 127 127 126 124 123 121 120 120 119 118 119 119 118 117 113 109 104 100 98 94 84 75 68 63 58 55 54 50 46 46 46 46 50 53 50 43 40 42 46 44 39 38 41 42 49 61 70 72 67 60 58 58 57 57 62 69 75 81 84 88 94 101 105 104 99 92 89 87 82 76 74
123 135 142 132 111 103 114 120 124 127 127 126 125 127 129 127 126 127 125 123 123 121 120 122 122 121 123 122 120 119 115 110 106 103 101 99 95 89 82 77 72 67 60 52 46 45 43 43 48 52 47 39 33 32 37 39 38 40 42 39 37 40 50 63 68 63 59 58 57 57 59 62 66 72 78 81 83 87 96 102 105 107 106 99 89 66 42
141 150 151 139 122 121 128 129 129 130 129 127 126 128 128 125 124 125 124 124 127 125 123 124 120 119 122 122 122 122 117 114 114 113 109 104 99 93 88 85 81 74 66 55 46 43 41 42 46 49 46 38 31 28 33 38 37 37 39 39 36 32 31 35 42 50 55 57 55 54 55 56 57 61 68 76 79 78 78 80 86 94 101 105 108 106 77
129 146 148 137 128 129 133 133 130 127 127 127 128 128 126 123 122 121 119 120 122 123 125 125 119 115 114 112 113 115 112 111 112 110 107 101 92 86 85 84 78 66 55 44 34 32 36 41 42 42 40 37 30 27 33 38 39 38 38 36 33 28 24 20 20 24 37 51 57 58 56 53 51 51 56 65 74 76 74 69 67 68 72 77 86 96 104
135 144 141 132 129 130 131 128 126 125 128 130 129 129 127 125 123 120 117 115 114 115 117 118 117 116 112 106 103 101 97 95 90 81 75 71 64 65 70 69 63 56 52 48 41 36 37 39 37 34 33 31 27 24 26 27 27 27 28 27 24 22 21 18 14 15 20 31 47 63 68 62 56 52 50 54 62 69 71 68 65 62 62 64 68 75 87
131 136 134 127 126 128 130 130 130 130 132 132 131 131 130 126 124 122 119 117 117 116 116 116 117 118 118 117 116 113 104 99 93 85 77 64 51 51 69 65 50 42 42 44 41 38 39 43 40 34 31 29 23 19 18 19 21 23 21 18 15 14 17 18 12 6 10 18 30 49 68 70 65 59 55 55 59 60 60 62 63 62 60 60 60 60 67
131 136 133 128 130 136 136 132 130 130 130 130 131 132 132 131 130 129 126 124 122 120 118 119 119 119 119 119 121 124 124 116 107 99 86 67 54 53 65 41 2 356 352 351 4 17 31 41 37 29 26 29 28 22 15 12 17 25 23 16 13 13 17 21 14 6 5 13 26 37 47 55 62 67 66 65 64 60 55 54 57 59 59 58 57 54 54
136 139 134 129 132 137 133 127 125 126 126 127 130 133 136 137 139 138 135 132 130 128 126 124 122 120 117 115 118 127 133 130 118 105 82 56 48 46 37 0 341 344 347 345 342 343 355 19 27 24 23 23 24 24 19 13 12 18 19 18 18 20 23 27 25 24 25 29 35 43 50 55 64 84 97 88 75 70 68 66 64 61 59 57 53 48 46
138 136 129 123 125 129 129 128 128 128 127 128 132 135 137 139 139 139 140 142 144 147 146 140 136 132 126 124 127 131 141 147 133 87 22 1 354 343 329 320 320 336 4 5 338 327 329 337 356 14 20 19 17 18 17 12 11 12 13 15 22 26 28 29 29 33 41 47 47 49 57 62 67 84 110 120 111 85 76 75 70 60 53 50 48 42 36
136 131 128 127 129 131 132 131 132 133 134 137 139 139 139 139 137 136 138 144 153 164 171 167 159 149 135 131 133 132 135 138 97 43 24 22 19 6 346 329 321 336 17 3 330 330 335 339 345 354 4 10 14 15 13 11 13 14 11 9 18 27 31 33 30 32 39 44 41 40 42 43 45 52 71 120 184 120 78 75 67 55 48 45 41 32 23
139 136 136 138 138 136 135 135 138 140 141 143 145 146 145 144 141 139 141 144 143 145 153 157 156 148 136 131 127 117 111 100 85 72 64 57 54 51 50 48 47 50 47 33 19 14 12 12 9 359 353 359 3 360 352 353 359 7 8 6 10 21 32 39 35 29 30 33 33 34 35 34 31 30 28 7 279 271 69 75 67 58 53 47 40 30 21
148 148 149 150 148 144 143 146 149 152 153 155 154 152 149 145 142 143 149 148 137 127 125 126 126 123 118 115 109 101 100 102 99 88 73 62 55 52 52 54 55 55 53 48 41 34 27 23 19 8 360 359 358 351 343 337 337 344 357 3 357 358 16 32 32 21 17 21 26 29 30 29 26 19 9 1 329 278 292 56 63 61 58 50 41 35 28
158 158 161 163 163 161 161 161 160 160 161 160 157 152 147 145 144 144 146 147 141 132 122 115 108 101 97 98 103 104 104 107 104 91 78 69 63 61 64 68 69 67 63 54 43 33 24 20 14 5 355 347 339 332 327 324 323 325 334 342 336 332 342 358 5 5 2 359 2 11 15 18 18 11 358 346 322 274 271 343 51 63 61 52 43 35 27
163 161 162 164 165 163 164 167 167 166 163 163 163 160 152 150 152 152 146 140 139 138 138 130 111 93 89 95 102 107 108 105 99 92 86 80 72 68 70 72 71 69 63 53 42 34 27 19 11 1 352 341 331 321 315 312 310 307 308 313 313 312 319 327 334 344 351 348 341 343 353 3 8 3 349 334 310 273 269 304 46 58 49 36 29 23 15
165 161 160 162 161 157 157 160 164 166 166 166 168 166 158 157 163 166 161 148 138 142 152 150 122 98 101 109 112 113 111 103 94 91 90 85 75 69 63 52 41 40 42 39 32 28 26 24 21 20 19 14 6 355 343 333 325 312 295 294 305 307 306 309 314 323 340 347 339 329 333 349 0 358 346 327 293 263 266 302 28 35 23 12 10 9 7
172 169 169 170 169 166 165 164 164 165 164 163 163 166 170 173 176 179 180 173 161 163 170 161 133 115 116 116 113 111 107 101 94 87 83 78 73 65 50 27 5 359 6 14 14 16 22 27 26 25 26 25 22 16 7 358 351 337 304 284 296 307 309 311 315 318 328 350 353 328 320 336 355 359 354 337 285 248 251 297 358 16 10 357 350 354 4
178 178 179 178 174 172 172 170 166 162 162 165 169 173 179 184 184 184 185 180 173 177 179 165 137 124 120 116 114 114 111 103 95 83 70 63 64 66 49 19 358 353 357 359 359 3 11 17 17 13 14 16 17 12 4 355 352 348 327 300 296 303 308 311 313 312 312 324 346 323 311 323 347 2 4 357 312 245 249 288 313 340 353 343 333 335 4
184 185 183 179 174 171 168 166 165 163 164 172 178 180 181 184 184 180 177 173 166 164 168 161 146 135 126 119 119 122 118 109 99 79 52 38 52 89 53 344 342 351 358 359 353 357 4 6 4 3 5 7 8 7 3 355 346 339 332 321 309 306 308 311 312 309 303 300 302 304 306 315 334 356 5 2 337 255 250 278 298 318 331 329 320 319 8
190 186 177 170 169 168 164 163 169 174 176 178 181 180 178 180 179 172 171 172 166 161 162 165 166 162 151 142 139 140 137 134 123 328 321 330 323 218 263 295 305 322 341 348 346 353 4 6 1 359 1 1 1 2 4 3 355 332 309 310 313 314 316 319 316 307 297 291 291 291 294 303 319 339 351 350 335 300 280 284 296 310 319 314 293 275 304
176 170 165 163 166 167 164 163 171 178 179 178 180 178 177 178 177 171 170 174 172 168 168 173 181 183 177 172 176 181 193 217 256 278 278 274 260 262 292 312 308 298 307 318 325 342 1 8 4 357 354 355 356 358 2 5 3 349 318 305 307 309 313 319 317 307 295 290 291 290 285 287 299 316 328 330 326 316 305 297 292 297 303 293 259 256 293
163 162 162 164 166 167 165 164 168 174 175 178 182 183 182 183 182 178 179 182 183 181 181 184 190 190 187 194 215 234 241 242 250 266 277 276 270 276 301 322 319 296 290 291 294 320 353 4 2 356 349 348 353 356 357 1 5 0 343 323 315 311 313 318 317 311 302 292 286 285 283 280 281 288 300 309 313 310 305 299 293 290 283 255 237 249 287
161 161 164 166 168 170 170 169 170 174 178 182 185 187 191 194 191 183 180 182 184 186 187 189 194 200 207 220 227 226 233 247 257 271 284 286 283 289 305 315 313 298 279 269 270 295 337 351 350 348 343 342 348 352 354 356 1 2 354 338 324 316 315 318 317 313 308 300 290 280 273 271 273 275 278 286 298 303 301 296 293 286 258 230 234 251 277
163 164 166 168 170 172 173 174 176 178 181 185 186 188 199 206 200 188 182 182 185 190 193 196 205 215 223 229 232 243 262 269 268 272 281 288 293 301 308 310 306 290 265 248 253 281 318 334 336 335 333 335 341 347 349 350 356 360 357 347 331 319 316 321 327 325 318 310 301 286 272 265 265 265 266 270 280 288 291 291 286 272 246 232 241 259 270
167 170 172 173 172 171 172 177 179 178 179 181 178 173 184 203 203 197 192 190 188 190 197 207 216 220 224 232 242 256 272 272 266 267 279 291 299 304 305 305 300 286 261 243 248 277 308 325 329 324 324 330 337 340 341 345 353 357 354 347 338 331 333 343 353 354 346 332 311 292 283 277 268 260 259 264 269 272 273 274 271 258 246 243 251 263 269
170 172 173 173 173 172 173 176 179 178 178 178 172 163 164 182 193 195 197 199 199 196 198 207 219 224 227 231 236 243 257 263 259 262 275 287 298 305 306 302 293 273 251 243 254 279 304 321 325 323 322 328 333 333 331 336 346 350 349 344 342 351 9 11 4 2 2 356 330 291 288 290 278 262 258 261 264 264 262 260 257 253 249 248 255 267 276
171 172 172 173 174 174 175 179 183 185 183 180 177 174 172 175 181 188 197 209 217 214 208 209 219 224 223 226 229 233 242 251 251 251 262 279 294 303 308 307 290 257 246 253 267 286 303 313 317 317 316 318 319 319 319 325 334 340 342 341 334 326 345 358 354 354 360 1 352 330 310 298 286 277 277 280 275 268 260 253 250 251 252 254 258 266 274
174 177 180 179 176 175 174 175 179 183 185 187 191 193 190 187 189 193 197 207 219 220 214 214 221 225 225 232 238 239 241 244 242 238 243 262 282 294 310 330 309 251 248 260 274 286 297 303 304 303 302 299 297 296 300 310 323 330 334 339 334 315 308 328 338 336 338 346 351 349 343 329 311 300 296 293 286 277 265 253 246 245 247 252 258 261 264
179 181 183 182 180 179 178 177 178 184 190 197 205 206 201 199 201 205 207 212 218 218 215 218 224 225 226 232 236 236 239 246 248 245 247 259 274 283 300 328 293 230 233 251 267 281 295 304 306 305 300 292 288 286 288 295 308 316 321 331 340 337 325 323 327 326 324 326 330 334 339 343 341 334 319 294 273 268 266 260 251 245 241 243 250 257 260
178 177 179 183 184 183 183 185 187 188 188 190 193 195 194 195 200 207 212 215 216 217 219 222 223 222 224 228 233 238 245 251 256 259 259 259 256 254 259 262 254 247 251 263 276 289 302 307 307 307 307 302 298 294 290 288 294 303 309 316 327 334 332 328 326 324 322 319 318 321 326 330 334 339 337 317 281 265 262 262 261 256 248 243 243 249 256
177 177 180 185 188 189 190 192 191 187 185 187 189 189 187 188 192 199 203 206 210 214 220 223 222 222 224 229 235 242 247 249 254 260 262 257 250 246 247 254 262 268 273 280 290 297 301 301 302 306 312 313 308 303 295 288 287 292 299 306 313 319 321 320 319 321 322 318 313 311 314 316 318 322 324 321 308 288 272 265 263 259 251 246 244 246 251
179 180 182 185 188 192 195 196 194 191 193 197 198 195 192 193 195 197 200 207 215 221 225 228 227 225 223 226 232 236 239 243 248 254 256 254 252 251 255 264 272 277 280 284 291 296 298 300 304 310 313 315 313 307 299 292 289 290 291 295 301 307 312 313 313 314 318 321 320 316 311 310 313 316 313 307 304 305 302 293 275 257 244 236 232 236 246
181 184 187 190 191 192 192 192 191 192 196 198 198 198 199 199 199 199 202 208 216 224 229 232 230 224 221 223 228 230 233 238 244 249 250 249 249 251 258 266 272 275 278 284 290 296 300 304 307 309 309 309 310 307 301 296 294 294 293 293 296 301 307 311 311 310 312 316 321 324 322 318 318 323 324 316 303 300 309 315 302 271 246 235 232 234 236